User: anonymous   Login
Location: Caltech
(34.1382°N, 118.1253°W)
Time: 10:39:00
(UTC-07:00)
Language:

AO-Echo - Orbit

View from above orbital plane
View from above orbital plane
View from above satellite
View from above satellite

Ground track
Ground track

The orbit data is extracted from the following two-line orbital elements,

1 28375U 04025K   17085.85230598 +.00000020 +00000-0 +19021-4 0  9996
2 28375 098.3539 021.0449 0082702 170.9518 189.3185 14.41829620669951
Epoch (UTC): 26 March 2017 20:27:19
Eccentricity: 0.0082702
inclination: 98.3539°
perigee height: 693 km
apogee height: 811 km
right ascension of ascending node: 21.0449°
argument of perigee: 170.9518°
revolutions per day: 14.41829620
mean anomaly at epoch: 189.3185°
orbit number at epoch: 66995

The dashed part of the orbit path shows where the satellite is in the earth's shadow,  

DLR